Regional Weather Roundup
Issued by NWS

Home | Current Version | Previous Version | Graphics & Text | Print | Product List | Glossary On
Versions: 1 2 3 4 5 6 7 8 9 10 11 12 13 14 15 16 17 18 19 20 21 22 23 24 25 26 27 28 29 30 31 32 33 34 35 36 37 38 39 40 41 42 43 44 45 46 47 48 49 50
000
ASUS43 KLOT 261108
RWRIL

ILLINOIS REGIONAL WEATHER ROUNDUP
NATIONAL WEATHER SERVICE CHICAGO/ROMEOVILLE IL
600 AM CDT THU MAY 26 2016

NOTE: "FAIR" INDICATES FEW OR NO CLOUDS BELOW 12,000 FEET WITH NO
SIGNIFICANT WEATHER AND/OR OBSTRUCTIONS TO VISIBILITY.

* THESE STATIONS ARE NOT UNDER NWS QUALITY CONTROL. THEY ALSO MAY NOT
  REPORT WEATHER SUCH AS PRECIPITATION OR FOG.

ILZ001-002-007-009-015-016-024-261200-
NORTHWEST ILLINOIS

CITY           SKY/WX    TMP DP  RH WIND       PRES   REMARKS
MOLINE         CLOUDY    71  65  81 S8        29.90R
STERLING*      CLOUDY    69  65  86 CALM      29.91R
SAVANNA*       CLOUDY    68  64  88 S7        29.89R
$$

ILZ003-004-008-010-011-017-018-261200-
NORTH CENTRAL ILLINOIS

CITY           SKY/WX    TMP DP  RH WIND       PRES   REMARKS
ROCKFORD       CLOUDY    68  64  87 SW6       29.92R
FREEPORT*      CLOUDY    67  64  87 S13       29.91R
ROCHELLE*      CLOUDY    66  64  95 S5        29.91R
DE KALB*       CLOUDY    65  65  97 S9        29.92R FOG
$$

ILZ005-006-012>014-019>023-261200-
NORTHEAST ILLINOIS

CITY           SKY/WX    TMP DP  RH WIND       PRES   REMARKS
CHICAGO-OHARE  MOCLDY    68  66  93 SW10      29.91R
CHICAGO-MIDWAY CLOUDY    69  64  84 S9        29.92R
AURORA         CLOUDY    68  65  90 S9        29.92R FOG
LANSING*       CLEAR     66  64  93 S7        29.94R FOG
JOLIET*        PTCLDY    69  67  92 S6        29.94R
WAUKEGAN       CLOUDY    65  64  97 SW9       29.89R FOG
DUPAGE AIRPORT CLOUDY    67  64  90 S9        29.91R FOG
KANKAKEE*      PTCLDY   N/A N/A N/A S10       29.95R
WHEELING       CLEAR     67  65  93 S10       29.92R
MORRIS*        MOCLDY    69  65  88 S7        29.92R
ROMEOVILLE*    CLOUDY    66  64  91 S8        29.93R FOG
NORTHERLY ISL    N/A     68  64  87 S7          N/A
NORTHERLY ISL    N/A     68  64  87 S7          N/A
$$

LMZ740>746-261200-
SOUTHERN LAKE MICHIGAN

STATION/POSITION SKY/WX   TEMP    WIND        PRES    VSBY  WAVE
                          AIR SEA DIR/SP/G                  HT/PER
                          (F)     (DEG/KT/KT) (MB)    (MI)  (FT/S)
SOUTHERN BUOY              54 49  160/ 14/ 16 1011.9R         1/ 3
WILMETTE HARBOR            62 55  220/  6/  8   N/A           1/ 3
HARRISON CRIB              69     190/ 16/ 16   N/A
BURNHAM HARBOR             68     210/  8/ 11   N/A
CALUMET HARBOR             68     170/  7/ 10 1011.7F
BURNS HARBOR               68     180/ 11/ 18 1013.2F
MICHIGAN CITY              68     160/ 13/ 17   N/A
MICHIGAN CITY 6N           63 58  200/  8/ 10   N/A           1
ST. JOSEPH                 63 60  160/  8/ 10   N/A           1
$$

ILZ025>027-034>036-040-047-049-050-058-095>099-261200-
WEST-CENTRAL ILLINOIS

CITY           SKY/WX    TMP DP  RH WIND       PRES   REMARKS
QUINCY         LGT RAIN  66  63  90 E14       29.92F
GALESBURG*     TSTM      65  62  89 S9        29.94S
MACOMB*        TSTM      64  64  98 S5        29.94S
JACKSONVILLE*  CLOUDY    70  66  88 S7        29.91R
PITTSFIELD*    TSTM      72  68  88 W8G31     29.96R
$$

ILZ028>032-037-038-041>044-048-051>054-059>061-261200-
CENTRAL ILLINOIS

CITY           SKY/WX    TMP DP  RH WIND       PRES   REMARKS
PONTIAC        CLOUDY    69  67  93 S8        29.94R
BLOOMINGTON    PTCLDY    68  68 100 S9        29.95R
DECATUR        MOCLDY    68  65  90 S9        29.94F
PEORIA         CLOUDY    69  65  86 W8        29.94R
LACON*         CLOUDY    68  65  88 S3        29.92R
LINCOLN*       CLOUDY    70  68  93 S3        29.92S
SPRINGFIELD    CLOUDY    71  67  87 S9        29.91F
TAYLORVILLE    PTCLDY    68  67  94 S12       29.93F
$$

ILZ033-039-045-046-055>057-062-063-261200-
EAST-CENTRAL ILLINOIS

CITY           SKY/WX    TMP DP  RH WIND       PRES   REMARKS
CHAMPAIGN      CLOUDY    67  65  93 S10       29.96S FOG
RANTOUL*       CLOUDY    69  67  94 S10       29.96S FOG
MATTOON        MOCLDY    67  64  90 S8        29.97R
PARIS*         CLOUDY    68  66  93 S6        30.00S
$$

ILZ079-100>102-261200-
SOUTHWEST ILLINOIS

CITY           SKY/WX    TMP DP  RH WIND       PRES   REMARKS
ALTON          CLOUDY    67  65  96 SE5       29.94R
BELLEVILLE     MOCLDY    68  68 100 E2        29.94R
CAHOKIA*       CLEAR     69  65  86 S8        29.93R
SPARTA*        CLOUDY    67  65  93 S13       29.97R
$$

ILZ064>066-069>071-074>076-080>082-084>086-088>090-092>094-261200-
SOUTH-CENTRAL ILLINOIS

CITY           SKY/WX    TMP DP  RH WIND       PRES   REMARKS
CARBONDALE     PTCLDY    67  62  84 S10       29.98F
CAIRO*         PTCLDY    66  63  89 SE3       30.01S
EFFINGHAM*     MOCLDY    66  66 100 SE3       30.00R
MARION         CLEAR     68  63  83 S9        30.00S
MT. VERNON     CLEAR     66  61  82 S6        29.99S
CENTRALIA*     PTCLDY    69  66  92 S10       29.96S
SALEM*         PTCLDY    69  65  85 S8        29.97S
METROPOLIS*    CLEAR     66  64  93 CALM      30.03S
$$

ILZ067-068-072-073-078-083-087-091-261200-
SOUTHEAST ILLINOIS

CITY           SKY/WX    TMP DP  RH WIND       PRES   REMARKS
LAWRENCEVILLE  MOCLDY    67  64  90 S9        30.02R
FLORA*         CLEAR     68  64  86 SW9       29.99S
FAIRFIELD*     MOCLDY    67  63  85 S3        29.99R
HARRISBURG*    PTCLDY    67  63  86 CALM      30.01S
ROBINSON*      MOCLDY    65  64  96 S5        30.02R
CARMI*         CLEAR     64  64  97 S6        30.00S
$$

ABBREVIATIONS USED IN REMARKS
   TC - TEMPERATURE IN CELSIUS
  WCI - WIND CHILL INDEX
   HX - HEAT INDEX
  VSB - VISIBILITY
$$




USA.gov is the U.S. government's official web portal to all federal, state and local government web resources and services.